Cloud_Cover
100 100 100 100 100 100 99 100 100 100 100 100 100 97 44 8 99 36 93 84 100 99 5 0 4 98 0 1 0 0 0 5 5 0 0 5 5 23 84 86 20 66 76 19
100 100 100 100 100 100 100 100 100 100 100 100 100 87 62 99 74 100 100 100 100 100 16 30 94 21 2 0 0 0 0 2 5 1 1 3 1 4 3 66 69 12 78 17
100 100 100 100 100 100 100 100 100 100 100 100 100 60 62 100 100 100 100 100 100 100 99 100 100 34 5 3 0 0 0 1 1 5 0 3 5 2 5 36 93 5 18 1
100 100 100 100 100 100 100 100 100 100 100 100 100 100 94 100 100 100 100 100 100 100 100 100 100 50 6 5 4 5 0 0 4 2 0 0 0 4 1 5 32 88 17 85
100 100 100 100 100 100 100 100 100 100 100 100 100 100 100 96 100 100 100 66 100 100 44 100 99 45 77 64 8 5 5 5 2 4 0 0 0 0 5 5 91 100 100 79
100 100 100 100 100 100 100 100 100 100 100 100 100 93 100 100 100 100 100 76 100 100 98 31 13 47 82 98 38 7 5 5 5 4 0 0 2 4 4 5 60 84 44 99
100 100 100 100 100 100 100 100 100 100 100 100 100 100 100 100 100 100 100 100 100 100 97 91 22 52 99 100 92 58 22 5 7 5 5 54 0 1 6 14 5 5 54 36
100 100 100 100 100 100 100 100 100 100 100 100 100 100 100 80 100 100 100 100 100 100 100 91 84 91 100 100 100 98 98 5 5 5 41 5 0 3 1 27 2 5 5 4
100 100 100 100 100 100 100 100 100 100 100 100 100 93 100 100 100 100 100 100 100 100 100 100 100 100 100 100 100 100 87 52 5 64 63 73 0 0 0 5 32 0 0 0
100 100 100 100 100 100 100 100 100 100 100 100 100 100 100 100 100 100 100 100 100 88 98 100 100 100 100 100 100 100 100 84 4 29 81 34 0 2 5 70 12 2 5 5
100 100 100 100 100 100 100 100 100 100 100 100 100 100 100 100 100 100 100 100 100 100 100 100 92 91 100 89 100 100 98 52 19 34 45 73 3 11 47 48 6 5 5 4
100 100 100 100 100 100 100 100 100 100 100 100 100 100 100 100 100 100 100 98 95 100 100 99 100 97 92 32 100 100 100 5 5 6 14 5 69 100 48 94 5 33 4 0
100 100 100 100 100 100 100 100 100 100 93 92 100 100 100 100 100 100 100 100 100 100 95 98 92 100 5 5 93 100 97 8 5 22 22 5 5 2 5 55 100 4 6 5
100 100 100 100 100 100 100 100 91 100 100 100 96 100 100 100 100 100 100 100 99 98 99 99 100 100 12 11 100 100 69 1 5 100 5 6 7 0 5 12 30 13 20 18
100 100 100 100 100 100 100 92 100 100 100 100 100 85 100 100 64 8 9 6 8 54 88 100 84 100 63 80 100 100 57 4 5 8 5 5 9 5 5 5 5 5 18 6
100 100 100 100 100 100 100 100 100 97 100 99 100 98 5 5 5 5 1 5 25 65 95 93 96 44 99 63 100 100 5 5 4 11 5 5 5 5 5 5 5 43 73 5
100 100 100 100 100 100 100 93 63 53 96 96 99 65 5 2 3 4 9 30 100 99 100 91 53 95 86 100 100 87 4 0 5 5 5 9 5 56 39 7 29 53 12 4
100 100 100 100 100 100 99 72 19 100 100 93 93 17 5 2 10 5 5 93 92 100 92 95 92 46 66 83 8 6 10 2 0 2 5 29 62 72 34 14 70 32 61 98
100 100 100 100 96 13 13 73 84 56 15 47 61 50 5 4 28 42 47 54 92 100 99 90 86 100 83 3 0 3 5 5 5 5 72 59 15 43 62 54 19 14 100 54
100 84 76 21 5 6 22 71 79 99 53 100 97 16 17 5 8 95 79 66 71 94 97 6 95 99 84 5 5 5 5 5 92 11 5 26 91 51 8 87 100 100 100 100
38 49 70 92 18 60 32 72 100 85 78 32 80 6 3 4 65 57 77 100 100 98 49 59 100 86 16 5 12 12 27 44 13 86 6 6 40 47 79 91 100 100 98 79
5 42 96 98 21 32 44 64 78 54 6 5 5 5 5 2 4 52 78 82 85 24 26 98 65 8 58 20 6 25 5 5 5 39 19 83 92 66 99 100 84 99 100 100
43 10 5 17 48 83 84 95 58 55 10 53 93 92 90 75 92 71 5 25 40 5 38 24 71 97 100 100 98 82 100 90 94 98 96 100 100 100 100 100 100 100 100 100
100 100 95 91 84 100 100 98 99 62 76 96 81 92 98 100 100 92 96 36 43 95 10 22 61 88 100 100 100 100 100 100 100 100 100 100 100 100 100 63 87 100 100 100
99 91 96 100 100 97 95 98 100 98 83 9 61 89 97 81 100 100 100 100 90 75 73 98 100 100 100 100 98 100 100 100 100 100 100 100 100 100 100 100 100 100 100 100
58 85 97 38 23 67 100 100 100 96 100 100 97 89 87 99 100 100 100 100 91 96 100 100 100 99 100 100 100 100 100 100 100 100 100 100 100 100 100 100 100 98 93 74
36 47 6 5 5 6 84 100 100 89 72 26 83 100 54 89 100 100 100 100 100 100 100 100 99 100 100 100 100 100 100 100 100 100 100 100 100 100 100 100 100 100 99 100